Timestamp (UTC),Temp / °C,Chill / °C,HIndex / °C,Humid%,Dewpt / °C,Wind / ms¯¹,HiWind / ms¯¹,Winddir / °,Rain / mm,RainRate / mmhr¯¹,Pressure / hPa,InsideTemp / °C,InsideHumid%,Radiation / Wm¯²,UV
2015-03-02 00:00:00,4.0,1.2,4.0,74.0,-0.2,3.1,8.9,270,0.0,0.0,986.3,23.2,28.0,0,0
2015-03-02 00:05:00,4.0,0.9,4.0,75.0,-0.0,3.6,7.2,270,0.0,0.0,986.4,23.2,28.0,0,0
2015-03-02 00:10:00,4.0,1.2,4.0,75.0,-0.0,3.1,6.3,225,0.0,0.0,986.4,23.2,28.0,0,0
2015-03-02 00:15:00,4.0,0.9,4.0,75.0,-0.0,3.6,7.2,247.5,0.0,0.0,986.4,23.2,28.0,0,0
2015-03-02 00:20:00,4.0,0.9,4.0,75.0,-0.0,3.6,8.9,247.5,0.0,0.0,986.5,23.2,28.0,0,0
2015-03-02 00:25:00,4.0,1.2,4.0,76.0,0.2,3.1,9.4,247.5,0.0,0.0,986.4,23.2,28.0,0,0
2015-03-02 00:30:00,4.0,1.2,4.0,75.0,-0.0,3.1,7.2,247.5,0.0,0.0,986.4,23.2,28.0,0,0
2015-03-02 00:35:00,3.9,1.1,3.9,75.0,-0.1,3.1,6.7,247.5,0.0,0.0,986.4,23.2,28.0,0,0
2015-03-02 00:40:00,3.9,1.1,3.9,75.0,-0.1,3.1,10.3,247.5,0.0,0.0,986.7,23.2,28.0,0,0
2015-03-02 00:45:00,3.9,0.3,3.9,75.0,-0.1,4.5,10.7,270,0.0,0.0,986.8,23.2,28.0,0,0
2015-03-02 00:50:00,3.9,0.2,3.9,75.0,-0.1,4.5,10.3,292.5,0.0,0.0,986.8,23.2,28.0,0,0
2015-03-02 00:55:00,3.8,0.1,3.8,76.0,-0.1,4.5,10.3,270,0.0,0.0,986.8,23.2,28.0,0,0
2015-03-02 01:00:00,3.7,1.2,3.7,77.0,0.0,2.7,6.3,270,0.0,0.0,986.8,23.2,28.0,0,0
2015-03-02 01:05:00,3.7,1.2,3.7,77.0,0.0,2.7,5.8,270,0.0,0.0,986.7,23.2,28.0,0,0
2015-03-02 01:10:00,3.7,0.8,3.7,77.0,0.0,3.1,7.2,270,0.0,0.0,986.8,23.2,28.0,0,0
2015-03-02 01:15:00,3.7,0.5,3.7,77.0,0.0,3.6,7.2,247.5,0.0,0.0,986.8,23.2,28.0,0,0
2015-03-02 01:20:00,3.7,1.2,3.7,77.0,0.0,2.7,7.2,270,0.0,0.0,986.8,23.2,28.0,0,0
2015-03-02 01:25:00,3.7,1.2,3.7,77.0,0.1,2.7,6.7,247.5,0.0,0.0,986.8,23.2,28.0,0,0
2015-03-02 01:30:00,3.8,0.9,3.8,77.0,0.1,3.1,6.7,270,0.0,0.0,986.9,23.2,28.0,0,0
2015-03-02 01:35:00,3.8,0.9,3.8,77.0,0.1,3.1,6.3,247.5,0.0,0.0,986.9,23.2,28.0,0,0
2015-03-02 01:40:00,3.8,1.7,3.8,77.0,0.1,2.2,6.7,247.5,0.0,0.0,986.8,23.2,28.0,0,0
2015-03-02 01:45:00,3.8,0.9,3.8,77.0,0.1,3.1,8.0,202.5,0.0,0.0,986.9,23.2,28.0,0,0
2015-03-02 01:50:00,3.8,1.4,3.8,77.0,0.2,2.7,6.7,270,0.0,0.0,987.1,23.2,28.0,0,0
2015-03-02 01:55:00,3.9,1.1,3.9,77.0,0.2,3.1,8.9,225,0.0,0.0,987.1,23.2,28.0,0,0
2015-03-02 02:00:00,3.9,1.5,3.9,77.0,0.3,2.7,6.3,292.5,0.0,0.0,987.2,23.2,28.0,0,0
2015-03-02 02:05:00,4.0,1.6,4.0,77.0,0.3,2.7,8.5,225,0.0,0.0,987.2,23.2,28.0,0,0
2015-03-02 02:10:00,3.9,1.5,3.9,77.0,0.3,2.7,5.8,247.5,0.0,0.0,987.4,23.2,28.0,0,0
2015-03-02 02:15:00,3.9,2.4,3.9,77.0,0.3,1.8,5.8,202.5,0.0,0.0,987.6,23.2,28.0,0,0
2015-03-02 02:20:00,3.9,1.9,3.9,77.0,0.3,2.2,8.9,247.5,0.0,0.0,987.6,23.2,28.0,0,0
2015-03-02 02:25:00,3.9,1.4,3.9,77.0,0.2,2.7,6.7,247.5,0.0,0.0,987.7,23.2,28.0,0,0
2015-03-02 02:30:00,3.8,2.2,3.8,77.0,0.2,1.8,6.7,270,0.0,0.0,987.7,23.2,28.0,0,0
2015-03-02 02:35:00,3.8,1.8,3.8,77.0,0.2,2.2,4.9,202.5,0.0,0.0,987.7,23.2,28.0,0,0
2015-03-02 02:40:00,3.8,1.4,3.8,77.0,0.2,2.7,5.4,270,0.0,0.0,987.6,23.2,28.0,0,0
2015-03-02 02:45:00,3.8,1.3,3.8,77.0,0.1,2.7,5.4,292.5,0.0,0.0,987.7,23.2,28.0,0,0
2015-03-02 02:50:00,3.8,1.7,3.8,77.0,0.1,2.2,4.9,202.5,0.0,0.0,987.7,23.2,28.0,0,0
2015-03-02 02:55:00,3.8,1.7,3.8,77.0,0.1,2.2,5.4,225,0.0,0.0,987.7,23.2,28.0,0,0
2015-03-02 03:00:00,3.8,2.2,3.8,77.0,0.1,1.8,5.4,247.5,0.0,0.0,987.7,23.3,28.0,0,0
2015-03-02 03:05:00,3.7,1.6,3.7,77.0,0.1,2.2,8.5,247.5,0.0,0.0,987.7,23.3,28.0,0,0
2015-03-02 03:10:00,3.7,0.6,3.7,77.0,0.1,3.6,8.9,270,0.0,0.0,987.7,23.3,28.0,0,0
2015-03-02 03:15:00,3.8,1.7,3.8,76.0,-0.1,2.2,5.8,247.5,0.0,0.0,987.7,23.3,28.0,0,0
2015-03-02 03:20:00,3.8,2.2,3.8,76.0,-0.1,1.8,6.3,202.5,0.0,0.0,987.8,23.3,28.0,0,0
2015-03-02 03:25:00,3.7,2.1,3.7,77.0,0.1,1.8,4.5,202.5,0.0,0.0,987.7,23.3,28.0,0,0
2015-03-02 03:30:00,3.7,1.2,3.7,77.0,0.0,2.7,6.3,225,0.0,0.0,987.7,23.3,28.0,0,0
2015-03-02 03:35:00,3.6,1.5,3.6,77.0,-0.0,2.2,5.4,225,0.0,0.0,987.7,23.3,28.0,0,0
2015-03-02 03:40:00,3.6,0.7,3.6,78.0,0.1,3.1,6.7,225,0.0,0.0,987.8,23.3,28.0,0,0
2015-03-02 03:45:00,3.7,0.8,3.7,78.0,0.2,3.1,8.0,225,0.0,0.0,987.8,23.3,28.0,0,0
2015-03-02 03:50:00,3.7,1.2,3.7,78.0,0.2,2.7,6.7,225,0.0,0.0,987.8,23.3,28.0,0,0
2015-03-02 03:55:00,3.8,1.3,3.8,79.0,0.5,2.7,6.3,225,0.0,0.0,987.8,23.3,28.0,0,0
2015-03-02 04:00:00,3.7,1.2,3.7,79.0,0.4,2.7,5.8,202.5,0.0,0.0,987.7,23.3,28.0,0,0
2015-03-02 04:05:00,3.5,1.4,3.5,80.0,0.4,2.2,6.3,202.5,0.0,0.0,987.6,23.4,28.0,0,0
2015-03-02 04:10:00,3.4,0.5,3.4,80.0,0.3,3.1,8.0,225,0.0,0.0,987.6,23.4,28.0,0,0
2015-03-02 04:15:00,3.4,0.8,3.4,80.0,0.3,2.7,5.4,225,0.0,0.0,987.6,23.4,28.0,0,0
2015-03-02 04:20:00,3.3,1.2,3.3,80.0,0.2,2.2,5.4,225,0.0,0.0,987.5,23.4,28.0,0,0
2015-03-02 04:25:00,3.3,0.8,3.3,79.0,0.0,2.7,6.7,225,0.0,0.0,987.4,23.4,28.0,0,0
2015-03-02 04:30:00,3.3,-0.2,3.3,79.0,0.0,4.0,7.2,225,0.0,0.0,987.4,23.4,28.0,0,0
2015-03-02 04:35:00,3.3,-0.2,3.3,79.0,0.0,4.0,9.4,225,0.0,0.0,987.4,23.4,28.0,0,0
2015-03-02 04:40:00,3.3,0.1,3.3,79.0,0.0,3.6,8.9,225,0.0,0.0,987.4,23.4,28.0,0,0
2015-03-02 04:45:00,3.3,0.8,3.3,79.0,0.0,2.7,6.3,225,0.0,0.0,987.5,23.4,28.0,0,0
2015-03-02 04:50:00,3.3,0.4,3.3,79.0,0.0,3.1,8.5,225,0.0,0.0,987.7,23.4,28.0,0,0
2015-03-02 04:55:00,3.3,0.8,3.3,79.0,0.0,2.7,6.3,225,0.0,0.0,987.6,23.4,28.0,0,0
2015-03-02 05:00:00,3.3,0.0,3.3,79.0,-0.0,3.6,9.4,225,0.0,0.0,987.8,23.4,28.0,0,0
2015-03-02 05:05:00,3.3,0.3,3.3,79.0,-0.0,3.1,6.7,202.5,0.0,0.0,987.8,23.4,28.0,0,0
2015-03-02 05:10:00,3.2,0.2,3.2,79.0,-0.1,3.1,5.8,225,0.0,0.0,987.8,23.4,28.0,0,0
2015-03-02 05:15:00,3.1,0.1,3.1,80.0,-0.1,3.1,5.8,225,0.0,0.0,987.7,23.4,28.0,0,0
2015-03-02 05:20:00,2.9,-0.1,2.9,80.0,-0.2,3.1,6.7,225,0.0,0.0,987.7,23.4,28.0,0,0
2015-03-02 05:25:00,2.9,0.7,2.9,80.0,-0.2,2.2,5.4,202.5,0.0,0.0,987.7,23.4,28.0,0,0
2015-03-02 05:30:00,2.8,-0.3,2.8,80.0,-0.3,3.1,6.7,225,0.0,0.0,987.7,23.4,28.0,0,0
2015-03-02 05:35:00,2.7,-0.7,2.7,80.0,-0.4,3.6,8.9,225,0.0,0.0,987.5,23.4,28.0,0,0
2015-03-02 05:40:00,2.7,-1.0,2.7,80.0,-0.4,4.0,8.5,225,0.0,0.0,987.7,23.4,28.0,0,0
2015-03-02 05:45:00,2.7,-0.7,2.7,80.0,-0.4,3.6,8.5,225,0.0,0.0,987.7,23.4,28.0,0,0
2015-03-02 05:50:00,2.7,-0.4,2.7,79.0,-0.6,3.1,5.8,225,0.0,0.0,987.8,23.4,28.0,0,0
2015-03-02 05:55:00,2.7,-0.4,2.7,79.0,-0.6,3.1,5.8,202.5,0.0,0.0,987.8,23.4,28.0,0,0
2015-03-02 06:00:00,2.6,-0.5,2.6,79.0,-0.7,3.1,5.8,225,0.0,0.0,987.6,23.4,28.0,0,0
2015-03-02 06:05:00,2.6,-0.2,2.6,80.0,-0.5,2.7,5.4,225,0.0,0.0,987.7,23.4,28.0,0,0
2015-03-02 06:10:00,2.7,-0.0,2.7,80.0,-0.4,2.7,5.4,225,0.0,0.0,987.5,23.4,28.0,0,0
2015-03-02 06:15:00,2.7,-0.4,2.7,80.0,-0.4,3.1,4.9,225,0.0,0.0,987.7,23.4,28.0,0,0
2015-03-02 06:20:00,2.7,-0.4,2.7,80.0,-0.4,3.1,6.3,225,0.0,0.0,987.5,23.4,28.0,0,0
2015-03-02 06:25:00,2.6,-0.1,2.6,80.0,-0.5,2.7,4.9,225,0.0,0.0,987.4,23.4,28.0,0,0
2015-03-02 06:30:00,2.6,0.3,2.6,80.0,-0.5,2.2,4.5,225,0.0,0.0,987.4,23.4,28.0,0,0
2015-03-02 06:35:00,2.6,-0.2,2.6,80.0,-0.5,2.7,4.5,225,0.0,0.0,987.6,23.4,28.0,0,0
2015-03-02 06:40:00,2.6,0.3,2.6,80.0,-0.5,2.2,4.5,202.5,0.0,0.0,987.9,23.4,28.0,0,0
2015-03-02 06:45:00,2.6,0.8,2.6,80.0,-0.5,1.8,5.8,225,0.0,0.0,987.9,23.4,28.0,0,0
2015-03-02 06:50:00,2.6,0.3,2.6,81.0,-0.4,2.2,4.9,202.5,0.0,0.0,987.8,23.4,28.0,0,0
2015-03-02 06:55:00,2.7,0.5,2.7,81.0,-0.2,2.2,5.4,202.5,0.0,0.0,987.8,23.4,28.0,3,0
2015-03-02 07:00:00,2.8,0.6,2.8,80.0,-0.3,2.2,4.9,202.5,0.0,0.0,987.8,23.3,28.0,5,0
2015-03-02 07:05:00,2.9,2.9,2.9,80.0,-0.2,1.3,3.6,202.5,0.0,0.0,987.9,23.3,28.0,14,0
2015-03-02 07:10:00,3.1,1.4,3.1,79.0,-0.2,1.8,4.0,225,0.0,0.0,987.9,23.3,28.0,13,0
2015-03-02 07:15:00,3.2,1.0,3.2,79.0,-0.1,2.2,4.9,202.5,0.0,0.0,988.2,23.3,28.0,12,0
2015-03-02 07:20:00,3.2,0.2,3.2,78.0,-0.3,3.1,8.5,292.5,0.0,0.0,988.6,23.3,28.0,11,0
2015-03-02 07:25:00,2.7,-1.0,2.7,80.0,-0.4,4.0,8.9,270,0.0,0.0,988.5,23.3,28.0,4,0
2015-03-02 07:30:00,2.4,-0.7,2.4,81.0,-0.5,3.1,8.5,225,0.0,0.0,988.5,23.4,28.0,9,0
2015-03-02 07:35:00,2.3,-0.5,2.3,81.0,-0.6,2.7,5.8,270,0.0,0.0,988.5,23.3,28.0,13,0
2015-03-02 07:40:00,2.4,0.6,2.4,81.0,-0.5,1.8,3.6,202.5,0.0,0.0,988.6,23.3,28.0,12,0
2015-03-02 07:45:00,2.6,0.3,2.6,81.0,-0.3,2.2,5.4,202.5,0.0,0.0,988.7,23.3,28.0,18,0
2015-03-02 07:50:00,2.7,-0.0,2.7,82.0,-0.1,2.7,6.3,202.5,0.0,0.0,988.8,23.3,28.0,19,0
2015-03-02 07:55:00,2.7,2.7,2.7,82.0,-0.1,1.3,4.9,202.5,0.0,0.0,988.8,23.3,28.0,28,0
2015-03-02 08:00:00,2.5,-0.9,2.5,83.0,-0.1,3.6,8.5,292.5,0.0,0.0,989.0,23.3,28.0,38,0
2015-03-02 08:05:00,2.1,-1.7,2.1,83.0,-0.5,4.0,10.3,270,0.0,0.0,988.9,23.3,28.0,14,0
2015-03-02 08:10:00,1.7,-2.3,1.7,83.0,-0.9,4.0,8.9,270,0.0,0.0,989.0,23.3,28.0,15,0
2015-03-02 08:15:00,1.5,-2.5,1.5,84.0,-0.9,4.0,12.5,270,0.0,0.0,989.3,23.3,27.0,47,0.3
2015-03-02 08:20:00,1.7,-1.9,1.7,85.0,-0.5,3.6,8.9,270,0.1,0.0,989.5,23.3,27.0,63,0.5
2015-03-02 08:25:00,1.6,-2.3,1.6,85.0,-0.6,4.0,8.5,270,0.0,0.0,989.2,23.3,27.0,62,0.6
2015-03-02 08:30:00,1.5,-1.8,1.5,85.0,-0.7,3.1,8.0,270,0.1,0.6,989.1,23.3,27.0,86,0.8
2015-03-02 08:35:00,1.5,-1.4,1.5,85.0,-0.7,2.7,7.2,247.5,0.0,0.6,989.1,23.4,27.0,97,0.8
2015-03-02 08:40:00,1.7,-1.6,1.7,85.0,-0.6,3.1,7.2,270,0.0,0.6,988.9,23.4,27.0,104,0.9
2015-03-02 08:45:00,2.1,-0.8,2.1,84.0,-0.4,2.7,8.9,270,0.0,0.4,989.0,23.4,27.0,182,1
2015-03-02 08:50:00,2.5,-0.6,2.5,82.0,-0.3,3.1,7.2,225,0.0,0.0,989.2,23.4,27.0,192,1
2015-03-02 08:55:00,2.8,-0.5,2.8,80.0,-0.3,3.6,6.7,270,0.0,0.0,989.3,23.4,27.0,225,1
2015-03-02 09:00:00,3.2,0.6,3.2,77.0,-0.5,2.7,8.5,270,0.0,0.0,989.3,23.5,27.0,214,1.1
2015-03-02 09:05:00,3.4,0.5,3.4,75.0,-0.6,3.1,6.3,225,0.0,0.0,989.5,23.5,27.0,260,1.1
2015-03-02 09:10:00,3.5,0.3,3.5,72.0,-1.1,3.6,10.7,247.5,0.1,0.0,989.7,23.5,27.0,189,1.1
2015-03-02 09:15:00,3.7,0.9,3.7,71.0,-1.0,3.1,8.0,270,0.0,0.0,989.7,23.4,27.0,274,1.3
2015-03-02 09:20:00,3.8,1.3,3.8,70.0,-1.2,2.7,9.8,247.5,0.0,0.0,989.9,23.4,27.0,163,0.9
2015-03-02 09:25:00,3.7,1.2,3.7,71.0,-1.1,2.7,6.7,292.5,0.0,0.0,989.9,23.5,27.0,125,0.7
2015-03-02 09:30:00,3.2,-0.6,3.2,73.0,-1.1,4.5,9.4,270,0.0,0.0,990.0,23.5,27.0,124,0.6
2015-03-02 09:35:00,2.9,-1.0,2.9,75.0,-1.1,4.5,10.3,270,0.0,0.0,990.4,23.5,27.0,19,0
2015-03-02 09:40:00,2.1,-2.0,2.1,78.0,-1.4,4.5,9.4,247.5,0.0,0.0,990.4,23.4,27.0,37,0.2
2015-03-02 09:45:00,1.4,-1.9,1.4,81.0,-1.5,3.1,8.9,225,0.0,0.0,990.2,23.4,27.0,30,0.3
2015-03-02 09:50:00,1.3,-1.6,1.3,84.0,-1.1,2.7,6.7,247.5,0.0,0.0,990.1,23.4,27.0,88,1.4
2015-03-02 09:55:00,1.3,-1.6,1.3,84.0,-1.1,2.7,5.8,247.5,0.0,0.0,990.0,23.3,27.0,53,1.1
2015-03-02 10:00:00,1.8,-1.4,1.8,85.0,-0.4,3.1,7.2,225,0.0,0.0,990.2,23.3,27.0,375,1.8
2015-03-02 10:05:00,2.2,-1.0,2.2,84.0,-0.3,3.1,7.2,270,0.1,0.0,990.2,23.3,27.0,202,1.4
2015-03-02 10:10:00,2.2,-0.1,2.2,83.0,-0.4,2.2,8.5,270,0.0,0.0,990.2,23.3,27.0,41,0
2015-03-02 10:15:00,2.2,0.3,2.2,82.0,-0.6,1.8,4.5,270,0.0,0.0,990.1,23.3,27.0,56,0.3
2015-03-02 10:20:00,2.6,-1.2,2.6,82.0,-0.2,4.0,8.5,247.5,0.0,0.0,990.1,23.3,27.0,404,2.1
2015-03-02 10:25:00,3.2,-0.1,3.2,81.0,0.2,3.6,8.5,270,0.0,0.0,990.0,23.3,27.0,471,2.1
2015-03-02 10:30:00,3.4,-0.1,3.4,79.0,0.2,4.0,8.5,270,0.0,0.0,990.3,23.3,27.0,105,1.1
2015-03-02 10:35:00,3.3,0.8,3.3,79.0,0.0,2.7,7.2,247.5,0.0,0.0,990.5,23.3,27.0,20,0
2015-03-02 10:40:00,2.8,-0.2,2.8,80.0,-0.3,3.1,7.2,292.5,0.1,0.0,990.3,23.3,27.0,110,0.7
2015-03-02 10:45:00,2.7,-1.0,2.7,82.0,-0.1,4.0,9.8,247.5,0.0,0.0,990.6,23.3,27.0,182,1.4
2015-03-02 10:50:00,2.7,0.5,2.7,83.0,0.1,2.2,6.3,247.5,0.0,0.0,990.6,23.3,27.0,196,1.4
2015-03-02 10:55:00,2.7,-0.0,2.7,84.0,0.2,2.7,8.5,292.5,0.0,0.0,990.6,23.4,27.0,198,1.5
2015-03-02 11:00:00,2.7,0.0,2.7,84.0,0.3,2.7,6.3,247.5,0.0,0.0,990.6,23.5,27.0,256,1.5
2015-03-02 11:05:00,2.7,0.5,2.7,85.0,0.5,2.2,4.5,247.5,0.0,0.0,990.7,23.5,27.0,99,1.1
2015-03-02 11:10:00,2.6,-0.1,2.6,85.0,0.3,2.7,6.7,202.5,0.0,0.0,990.7,23.5,27.0,33,0
2015-03-02 11:15:00,2.4,-0.7,2.4,85.0,0.2,3.1,10.7,270,0.1,0.0,990.9,23.5,27.0,24,0
2015-03-02 11:20:00,2.2,-0.6,2.2,85.0,-0.0,2.7,6.7,225,0.0,0.0,991.0,23.4,27.0,91,1.2
2015-03-02 11:25:00,2.3,0.5,2.3,86.0,0.2,1.8,5.4,270,0.0,0.0,991.0,23.5,27.0,129,1.8
2015-03-02 11:30:00,2.7,-0.0,2.7,87.0,0.7,2.7,6.7,247.5,0.0,0.0,991.2,23.5,27.0,426,2.3
2015-03-02 11:35:00,3.2,0.6,3.2,86.0,1.1,2.7,5.4,247.5,0.1,0.0,991.1,23.6,27.0,365,2.2
2015-03-02 11:40:00,3.5,0.3,3.5,86.0,1.4,3.6,8.5,270,0.0,0.0,991.4,23.6,27.0,480,2.4
2015-03-02 11:45:00,4.0,0.9,4.0,83.0,1.4,3.6,9.8,270,0.0,0.0,991.5,23.6,27.0,579,2.2
2015-03-02 11:50:00,3.9,0.5,3.9,81.0,0.9,4.0,10.7,270,0.0,0.0,991.8,23.7,27.0,212,1.3
2015-03-02 11:55:00,3.8,-0.1,3.8,80.0,0.7,4.9,12.5,315,0.0,0.0,991.9,23.7,27.0,238,1.4
2015-03-02 12:00:00,4.2,0.6,4.2,79.0,0.9,4.5,9.8,292.5,0.0,0.0,992.0,23.7,27.0,269,1.8
2015-03-02 12:05:00,4.5,0.5,4.5,77.0,0.8,5.4,11.6,292.5,0.0,0.0,991.8,23.8,27.0,522,2.2
2015-03-02 12:10:00,4.7,1.0,4.7,77.0,1.0,4.9,13.4,270,0.0,0.0,991.7,23.8,27.0,521,2.2
2015-03-02 12:15:00,4.9,1.5,4.9,75.0,0.9,4.5,10.3,270,0.0,0.0,991.7,23.9,27.0,520,2.1
2015-03-02 12:20:00,5.3,2.5,5.3,73.0,0.8,3.6,9.8,270,0.0,0.0,991.8,23.9,27.0,526,2.1
2015-03-02 12:25:00,5.5,2.5,5.5,71.0,0.7,4.0,11.2,247.5,0.0,0.0,992.1,23.9,27.0,352,1.5
2015-03-02 12:30:00,5.0,1.2,5.0,71.0,0.2,5.4,12.1,270,0.0,0.0,992.3,23.9,27.0,109,0.8
2015-03-02 12:35:00,5.2,2.1,5.2,71.0,0.3,4.0,13.0,292.5,0.0,0.0,992.3,23.9,27.0,651,2
2015-03-02 12:40:00,5.8,2.3,5.8,68.0,0.3,4.9,15.2,292.5,0.0,0.0,992.4,23.9,27.0,671,2.1
2015-03-02 12:45:00,5.9,1.9,5.9,65.0,-0.2,6.3,13.0,270,0.0,0.0,992.6,24.0,27.0,580,2.1
2015-03-02 12:50:00,6.1,2.5,6.1,62.0,-0.7,5.4,13.9,292.5,0.0,0.0,992.7,24.1,27.0,542,2
2015-03-02 12:55:00,5.7,1.9,5.7,63.0,-0.8,5.8,12.5,270,0.0,0.0,993.0,24.1,27.0,245,1.1
2015-03-02 13:00:00,5.7,2.1,5.7,65.0,-0.3,5.4,10.7,270,0.0,0.0,993.0,24.1,27.0,555,1.9
2015-03-02 13:05:00,5.9,2.3,5.9,61.0,-1.1,5.4,11.2,292.5,0.0,0.0,993.2,24.1,27.0,512,1.9
2015-03-02 13:10:00,6.1,2.4,6.1,58.0,-1.5,5.8,17.4,292.5,0.0,0.0,993.3,24.1,26.0,507,1.9
2015-03-02 13:15:00,6.0,1.6,6.0,58.0,-1.6,7.6,16.5,292.5,0.0,0.0,993.5,24.2,26.0,502,1.8
2015-03-02 13:20:00,6.2,2.7,6.2,58.0,-1.4,5.4,12.1,292.5,0.0,0.0,993.9,24.1,25.0,496,1.8
2015-03-02 13:25:00,5.9,1.8,5.9,58.0,-1.7,6.7,13.4,292.5,0.0,0.0,994.1,24.1,25.0,197,1
2015-03-02 13:30:00,5.4,2.2,5.4,65.0,-0.6,4.5,11.2,270,0.0,0.0,994.2,24.0,25.0,154,0.8
2015-03-02 13:35:00,4.9,1.8,4.9,69.0,-0.3,4.0,10.3,247.5,0.0,0.0,994.3,23.8,24.0,125,0.8
2015-03-02 13:40:00,4.6,1.3,4.6,71.0,-0.2,4.0,9.8,292.5,0.0,0.0,994.2,23.6,24.0,95,0
2015-03-02 13:45:00,4.7,1.7,4.7,73.0,0.2,3.6,8.9,270,0.0,0.0,994.3,23.3,25.0,318,1
2015-03-02 13:50:00,5.3,2.3,5.3,70.0,0.3,4.0,10.7,270,0.0,0.0,994.2,23.1,25.0,579,1.6
2015-03-02 13:55:00,5.8,2.6,5.8,65.0,-0.2,4.5,9.4,270,0.0,0.0,994.2,22.9,24.0,455,1.5
2015-03-02 14:00:00,6.2,3.0,6.2,63.0,-0.3,4.5,10.3,292.5,0.0,0.0,994.1,22.8,25.0,441,1.5
2015-03-02 14:05:00,6.3,3.2,6.3,61.0,-0.7,4.5,10.3,225,0.0,0.0,994.5,22.8,25.0,431,1.4
2015-03-02 14:10:00,6.2,2.5,6.2,60.0,-1.0,5.8,14.8,270,0.0,0.0,994.6,22.8,24.0,423,1.4
2015-03-02 14:15:00,6.1,2.3,6.1,60.0,-1.1,5.8,11.6,247.5,0.0,0.0,994.9,22.7,24.0,408,1.3
2015-03-02 14:20:00,6.1,2.5,6.1,60.0,-1.1,5.4,11.6,292.5,0.0,0.0,994.9,22.7,24.0,406,1.3
2015-03-02 14:25:00,6.1,3.0,6.1,59.0,-1.3,4.5,13.4,247.5,0.0,0.0,995.1,22.7,24.0,399,1.3
2015-03-02 14:30:00,6.1,2.9,6.1,60.0,-1.1,4.5,11.6,270,0.0,0.0,995.1,22.7,24.0,390,1.2
2015-03-02 14:35:00,6.2,3.3,6.2,61.0,-0.7,4.0,8.0,270,0.0,0.0,995.2,22.7,24.0,372,1.2
2015-03-02 14:40:00,6.3,3.7,6.3,60.0,-0.9,3.6,8.9,247.5,0.0,0.0,995.3,22.7,24.0,377,1.1
2015-03-02 14:45:00,6.3,3.4,6.3,59.0,-1.1,4.0,10.7,292.5,0.0,0.0,995.4,22.7,24.0,374,1.1
2015-03-02 14:50:00,6.3,3.2,6.3,62.0,-0.5,4.5,8.5,270,0.0,0.0,995.6,22.7,24.0,348,1
2015-03-02 14:55:00,6.2,3.0,6.2,59.0,-1.2,4.5,9.4,247.5,0.0,0.0,995.8,22.7,24.0,318,1
2015-03-02 15:00:00,6.3,3.5,6.3,59.0,-1.1,4.0,9.8,270,0.0,0.0,995.8,22.8,24.0,330,0.9
2015-03-02 15:05:00,6.2,2.5,6.2,59.0,-1.2,5.8,11.6,270,0.0,0.0,996.1,22.7,23.0,324,0.9
2015-03-02 15:10:00,6.2,3.1,6.2,59.0,-1.2,4.5,10.3,247.5,0.0,0.0,996.3,22.7,24.0,317,0.8
2015-03-02 15:15:00,6.1,3.4,6.1,61.0,-0.9,3.6,9.4,270,0.0,0.0,996.0,22.7,24.0,202,0.6
2015-03-02 15:20:00,6.1,3.1,6.1,61.0,-0.9,4.0,9.8,225,0.0,0.0,996.2,22.7,24.0,293,0.7
2015-03-02 15:25:00,5.9,2.8,5.9,60.0,-1.2,4.5,10.3,270,0.0,0.0,996.3,22.7,24.0,285,0.7
2015-03-02 15:30:00,6.0,3.3,6.0,61.0,-0.9,3.6,10.3,270,0.0,0.0,996.5,22.6,24.0,254,0.7
2015-03-02 15:35:00,6.1,3.8,6.1,61.0,-0.8,3.1,8.0,247.5,0.0,0.0,996.7,22.6,24.0,253,0.6
2015-03-02 15:40:00,5.9,2.3,5.9,61.0,-1.1,5.4,11.6,270,0.0,0.0,996.5,22.6,24.0,245,0.6
2015-03-02 15:45:00,5.9,3.3,5.9,61.0,-1.0,3.6,9.8,292.5,0.0,0.0,996.5,22.6,24.0,238,0.6
2015-03-02 15:50:00,5.9,2.8,5.9,60.0,-1.2,4.5,8.9,225,0.0,0.0,996.5,22.6,24.0,221,0.6
2015-03-02 15:55:00,5.9,3.0,5.9,59.0,-1.5,4.0,8.0,247.5,0.0,0.0,996.5,22.6,24.0,208,0.6
2015-03-02 16:00:00,5.9,3.0,5.9,60.0,-1.2,4.0,8.9,270,0.0,0.0,996.8,22.6,24.0,203,0.6
2015-03-02 16:05:00,5.8,2.3,5.8,58.0,-1.8,4.9,10.3,247.5,0.0,0.0,996.8,22.6,23.0,190,0.5
2015-03-02 16:10:00,5.7,2.7,5.7,57.0,-2.1,4.0,10.7,247.5,0.0,0.0,996.8,22.4,23.0,176,0.4
2015-03-02 16:15:00,5.8,3.1,5.8,57.0,-2.1,3.6,10.3,270,0.0,0.0,996.9,22.4,23.0,158,0.1
2015-03-02 16:20:00,5.8,3.4,5.8,58.0,-1.8,3.1,11.2,247.5,0.0,0.0,997.2,22.4,23.0,141,0
2015-03-02 16:25:00,5.7,2.7,5.7,58.0,-1.9,4.0,9.4,247.5,0.0,0.0,997.4,22.4,23.0,130,0
2015-03-02 16:30:00,5.6,2.9,5.6,60.0,-1.5,3.6,8.5,247.5,0.0,0.0,997.3,22.4,23.0,123,0
2015-03-02 16:35:00,5.5,2.2,5.5,60.0,-1.6,4.5,10.7,247.5,0.0,0.0,997.3,22.3,23.0,109,0
2015-03-02 16:40:00,5.4,2.6,5.4,61.0,-1.5,3.6,10.3,270,0.0,0.0,997.3,22.3,23.0,94,0
2015-03-02 16:45:00,5.3,2.3,5.3,61.0,-1.6,4.0,10.3,247.5,0.0,0.0,997.3,22.2,23.0,82,0
2015-03-02 16:50:00,5.3,2.8,5.3,61.0,-1.6,3.1,9.4,225,0.0,0.0,997.4,22.2,23.0,69,0
2015-03-02 16:55:00,5.2,2.1,5.2,61.0,-1.7,4.0,10.3,225,0.0,0.0,997.4,22.2,23.0,60,0
2015-03-02 17:00:00,5.1,2.2,5.1,62.0,-1.6,3.6,8.9,247.5,0.0,0.0,997.4,22.2,23.0,34,0
2015-03-02 17:05:00,4.9,2.0,4.9,62.0,-1.7,3.6,9.4,202.5,0.0,0.0,997.5,22.2,23.0,25,0
2015-03-02 17:10:00,4.8,2.2,4.8,62.0,-1.8,3.1,8.5,247.5,0.0,0.0,997.7,22.2,23.0,17,0
2015-03-02 17:15:00,4.7,2.1,4.7,63.0,-1.7,3.1,9.4,247.5,0.0,0.0,997.7,22.2,23.0,13,0
2015-03-02 17:20:00,4.7,2.0,4.7,64.0,-1.6,3.1,9.4,247.5,0.0,0.0,997.8,22.1,23.0,11,0
2015-03-02 17:25:00,4.6,1.6,4.6,64.0,-1.6,3.6,9.4,225,0.0,0.0,997.9,22.1,23.0,9,0
2015-03-02 17:30:00,4.6,2.2,4.6,64.0,-1.7,2.7,5.8,225,0.0,0.0,998.0,22.0,23.0,7,0
2015-03-02 17:35:00,4.6,1.9,4.6,65.0,-1.5,3.1,7.2,247.5,0.0,0.0,997.9,22.0,23.0,6,0
2015-03-02 17:40:00,4.6,1.9,4.6,65.0,-1.5,3.1,6.3,225,0.0,0.0,998.0,21.9,23.0,5,0
2015-03-02 17:45:00,4.6,1.3,4.6,65.0,-1.5,4.0,8.9,270,0.0,0.0,998.0,21.8,24.0,1,0
2015-03-02 17:50:00,4.6,1.9,4.6,65.0,-1.5,3.1,5.4,225,0.0,0.0,998.0,21.8,24.0,0,0
2015-03-02 17:55:00,4.5,2.2,4.5,65.0,-1.5,2.7,9.4,270,0.0,0.0,998.1,21.7,24.0,0,0
2015-03-02 18:00:00,4.5,1.2,4.5,64.0,-1.7,4.0,9.8,225,0.0,0.0,998.1,21.7,23.0,0,0
2015-03-02 18:05:00,4.5,1.8,4.5,64.0,-1.7,3.1,6.7,225,0.0,0.0,998.3,21.7,23.0,0,0
2015-03-02 18:10:00,4.4,1.4,4.4,64.0,-1.8,3.6,8.9,270,0.0,0.0,998.2,21.6,24.0,0,0
2015-03-02 18:15:00,4.4,1.4,4.4,64.0,-1.8,3.6,8.9,270,0.0,0.0,998.3,21.6,24.0,0,0
2015-03-02 18:20:00,4.5,1.8,4.5,63.0,-1.9,3.1,9.8,225,0.0,0.0,998.3,21.6,24.0,0,0
2015-03-02 18:25:00,4.5,1.8,4.5,63.0,-1.9,3.1,8.0,225,0.0,0.0,998.3,21.6,24.0,0,0
2015-03-02 18:30:00,4.5,1.8,4.5,62.0,-2.1,3.1,10.3,225,0.0,0.0,998.3,21.6,24.0,0,0
2015-03-02 18:35:00,4.4,2.1,4.4,62.0,-2.2,2.7,8.0,225,0.0,0.0,998.2,21.6,24.0,0,0
2015-03-02 18:40:00,4.4,1.7,4.4,62.0,-2.2,3.1,6.7,225,0.0,0.0,998.3,21.6,24.0,0,0
2015-03-02 18:45:00,4.4,2.0,4.4,62.0,-2.2,2.7,8.0,247.5,0.0,0.0,998.2,21.6,24.0,0,0
2015-03-02 18:50:00,4.3,2.8,4.3,62.0,-2.3,1.8,4.9,270,0.0,0.0,998.3,21.6,24.0,0,0
2015-03-02 18:55:00,4.3,2.0,4.3,62.0,-2.3,2.7,5.8,247.5,0.0,0.0,998.3,21.5,24.0,0,0
2015-03-02 19:00:00,4.3,2.3,4.3,62.0,-2.4,2.2,8.5,292.5,0.0,0.0,998.5,21.5,24.0,0,0
2015-03-02 19:05:00,4.3,4.3,4.3,62.0,-2.3,1.3,4.9,292.5,0.0,0.0,998.5,21.5,24.0,0,0
2015-03-02 19:10:00,4.4,2.9,4.4,62.0,-2.2,1.8,5.8,225,0.0,0.0,998.8,21.5,24.0,0,0
2015-03-02 19:15:00,4.5,4.5,4.5,62.0,-2.1,1.3,3.6,225,0.0,0.0,998.7,21.5,24.0,0,0
2015-03-02 19:20:00,4.6,3.1,4.6,62.0,-2.0,1.8,4.0,202.5,0.0,0.0,998.9,21.6,24.0,0,0
2015-03-02 19:25:00,4.7,4.7,4.7,62.0,-2.0,0.9,3.6,225,0.0,0.0,999.2,21.6,24.0,0,0
2015-03-02 19:30:00,4.6,1.6,4.6,64.0,-1.6,3.6,11.2,225,0.0,0.0,999.3,21.7,24.0,0,0
2015-03-02 19:35:00,4.3,0.5,4.3,68.0,-1.0,4.9,10.7,225,0.0,0.0,999.5,21.8,24.0,0,0
2015-03-02 19:40:00,3.9,0.8,3.9,71.0,-0.9,3.6,8.9,225,0.0,0.0,999.1,21.9,25.0,0,0
2015-03-02 19:45:00,3.6,1.1,3.6,73.0,-0.8,2.7,5.8,225,0.0,0.0,999.2,22.0,25.0,0,0
2015-03-02 19:50:00,3.4,0.5,3.4,75.0,-0.6,3.1,8.9,202.5,0.0,0.0,999.2,22.0,25.0,0,0
2015-03-02 19:55:00,3.3,0.3,3.3,76.0,-0.5,3.1,6.3,225,0.0,0.0,999.2,22.1,25.0,0,0
2015-03-02 20:00:00,3.2,1.5,3.2,77.0,-0.4,1.8,4.9,202.5,0.0,0.0,999.3,22.2,25.0,0,0
2015-03-02 20:05:00,3.1,1.4,3.1,78.0,-0.3,1.8,4.9,202.5,0.0,0.0,999.3,22.2,25.0,0,0
2015-03-02 20:10:00,3.1,0.4,3.1,78.0,-0.4,2.7,4.5,202.5,0.0,0.0,999.4,22.2,25.0,0,0
2015-03-02 20:15:00,3.0,0.0,3.0,78.0,-0.5,3.1,5.8,225,0.0,0.0,999.5,22.3,25.0,0,0
2015-03-02 20:20:00,2.9,0.7,2.9,78.0,-0.5,2.2,5.8,180,0.0,0.0,999.4,22.3,25.0,0,0
2015-03-02 20:25:00,2.9,0.2,2.9,78.0,-0.6,2.7,8.5,225,0.0,0.0,999.4,22.3,25.0,0,0
2015-03-02 20:30:00,2.9,0.7,2.9,79.0,-0.4,2.2,4.9,202.5,0.0,0.0,999.2,22.3,25.0,0,0
2015-03-02 20:35:00,2.9,0.7,2.9,79.0,-0.4,2.2,5.8,202.5,0.0,0.0,999.3,22.3,25.0,0,0
2015-03-02 20:40:00,2.9,-0.1,2.9,79.0,-0.4,3.1,5.4,225,0.0,0.0,999.4,22.3,25.0,0,0
2015-03-02 20:45:00,2.9,-0.1,2.9,80.0,-0.2,3.1,5.8,225,0.0,0.0,999.4,22.3,25.0,0,0
2015-03-02 20:50:00,2.9,0.3,2.9,80.0,-0.2,2.7,5.4,225,0.0,0.0,999.4,22.3,26.0,0,0
2015-03-02 20:55:00,2.9,0.3,2.9,80.0,-0.2,2.7,5.4,225,0.0,0.0,999.3,22.3,26.0,0,0
2015-03-02 21:00:00,3.1,0.9,3.1,79.0,-0.2,2.2,4.9,202.5,0.0,0.0,999.2,22.3,26.0,0,0
2015-03-02 21:05:00,3.1,3.1,3.1,79.0,-0.2,1.3,3.1,202.5,0.0,0.0,999.2,22.4,26.0,0,0
2015-03-02 21:10:00,3.2,1.5,3.2,79.0,-0.1,1.8,4.0,202.5,0.0,0.0,999.3,22.4,26.0,0,0
2015-03-02 21:15:00,3.2,0.6,3.2,78.0,-0.3,2.7,5.4,202.5,0.0,0.0,999.3,22.4,26.0,0,0
2015-03-02 21:20:00,3.2,1.0,3.2,78.0,-0.2,2.2,4.0,225,0.0,0.0,999.3,22.4,26.0,0,0
2015-03-02 21:25:00,3.3,1.7,3.3,77.0,-0.3,1.8,4.9,225,0.0,0.0,999.3,22.4,26.0,0,0
2015-03-02 21:30:00,3.4,3.4,3.4,77.0,-0.2,1.3,6.3,202.5,0.0,0.0,999.6,22.4,26.0,0,0
2015-03-02 21:35:00,3.4,1.7,3.4,77.0,-0.3,1.8,3.6,315,0.0,0.0,999.8,22.6,26.0,0,0
2015-03-02 21:40:00,3.3,0.7,3.3,77.0,-0.4,2.7,5.4,315,0.0,0.0,999.9,22.6,26.0,0,0
2015-03-02 21:45:00,3.1,1.4,3.1,78.0,-0.3,1.8,4.9,315,0.0,0.0,999.7,22.6,25.0,0,0
2015-03-02 21:50:00,3.0,3.0,3.0,79.0,-0.3,0.4,2.7,225,0.0,0.0,999.6,22.6,25.0,0,0
2015-03-02 21:55:00,3.1,3.1,3.1,79.0,-0.2,1.3,3.6,225,0.0,0.0,999.8,22.6,25.0,0,0
2015-03-02 22:00:00,3.1,3.1,3.1,79.0,-0.2,1.3,4.0,202.5,0.0,0.0,999.7,22.6,26.0,0,0
2015-03-02 22:05:00,3.1,0.4,3.1,79.0,-0.2,2.7,5.4,202.5,0.0,0.0,999.7,22.6,26.0,0,0
2015-03-02 22:10:00,3.1,0.1,3.1,78.0,-0.3,3.1,6.7,225,0.0,0.0,999.7,22.6,26.0,0,0
2015-03-02 22:15:00,3.2,0.6,3.2,77.0,-0.5,2.7,6.7,225,0.0,0.0,999.8,22.4,26.0,0,0
2015-03-02 22:20:00,3.2,0.6,3.2,77.0,-0.5,2.7,5.8,225,0.0,0.0,999.7,22.4,26.0,0,0
2015-03-02 22:25:00,3.2,0.2,3.2,77.0,-0.5,3.1,6.3,225,0.0,0.0,999.7,22.4,26.0,0,0
2015-03-02 22:30:00,3.2,0.2,3.2,77.0,-0.5,3.1,7.2,225,0.0,0.0,999.8,22.4,26.0,0,0
2015-03-02 22:35:00,3.2,0.6,3.2,77.0,-0.5,2.7,6.7,202.5,0.0,0.0,999.7,22.4,26.0,0,0
2015-03-02 22:40:00,3.2,-0.1,3.2,77.0,-0.5,3.6,7.2,225,0.0,0.0,999.7,22.4,26.0,0,0
2015-03-02 22:45:00,3.1,0.1,3.1,77.0,-0.5,3.1,6.3,202.5,0.0,0.0,999.8,22.4,26.0,0,0
2015-03-02 22:50:00,3.1,0.1,3.1,77.0,-0.5,3.1,6.7,225,0.0,0.0,999.9,22.4,26.0,0,0
2015-03-02 22:55:00,3.1,0.4,3.1,78.0,-0.4,2.7,6.3,225,0.0,0.0,1000.0,22.4,26.0,0,0
2015-03-02 23:00:00,3.1,3.1,3.1,78.0,-0.4,1.3,4.9,225,0.0,0.0,1000.0,22.4,26.0,0,0
2015-03-02 23:05:00,3.0,1.3,3.0,78.0,-0.5,1.8,4.9,225,0.0,0.0,1000.0,22.4,26.0,0,0
2015-03-02 23:10:00,3.0,0.0,3.0,78.0,-0.5,3.1,6.3,225,0.0,0.0,1000.0,22.4,26.0,0,0